Tracking 18823 objects as of 24-October-2017
HD Live streaming from Space Station
objects crossing your sky now

CP4

Track CP4 now!
10-day predictions
CP4 is classified as:


NORAD ID: 31132
Int'l Code: 2007-012Q
Perigee: 645.8 km
Apogee: 762.0 km
Inclination: 98.0 °
Period: 98.7 minutes
Semi major axis: 7074 km
RCS: 0.0337 m2 (small)
Launch date: April 17, 2007
Source: United States (US)
Launch site: TYURATAM MISSILE AND SPACE COMPLEX (TTMTR)
Uplink (MHz):
Downlink (MHz): 437.325
Beacon (MHz): 437.325
Mode: 1200bps SSB CW
Call sign: N6CP
Status: Inactive

aabbcc
Your satellite tracking list
Your tracking list is empty





NASA's NSSDC Master Catalog

Two Line Element Set (TLE):
1 31132U 07012Q   17297.10923260  .00000236  00000-0  57876-4 0  9997
2 31132  98.0458 248.7865 0082125  95.9937 265.0630 14.58885121559246
Source of the keplerian elements: Caltech